Lafayette, IN

9:38 PM EDT on August 29, 2016 (GMT -0400)
Purdue Univ

Weather History for KLAF - December, 2010

Change the Weather History Date:

Monday, December 6, 2010

  Actual Average Record
Temperature  
Mean Temperature 11 °F 33 °F  
Max Temperature 17 °F 41 °F 70 °F (1998)
Min Temperature 5 °F 26 °F -2 °F (1977)
Degree Days  
Heating Degree Days 54 32  
Month to date heating degree days 244 183  
Since 1 July heating degree days 1202 1284  
Cooling Degree Days 0 0  
Month to date cooling degree days 0 0  
Year to date cooling degree days 1342 983  
Moisture  
Dew Point 5 °F    
Average Humidity 77    
Maximum Humidity 83    
Minimum Humidity 70    
Precipitation  
Precipitation T in 0.09 in 0.64 in (1956)
Month to date precipitation 0.14 0.57  
Year to date precipitation 34.89 34.64  
Sea Level Pressure  
Sea Level Pressure 30.23 in    
Wind  
Wind Speed 12 mph (WNW)    
Max Wind Speed 20 mph    
Max Gust Speed 25 mph    
Visibility 9 miles    
Events Snow    
T = Trace of Precipitation, MM = Missing Value Source: NWS Daily Summary

Daily Weather History Graph

Daily Weather History Graph

Search for Another Location

Airport or City:

Trip Planner

Search our weather history database for the weather conditions in past years. The results will help you decide how hot, cold, wet, or windy it might be!

Date:

Astronomy

Dec. 06, 2010 Rise Set
Actual Time 7:56 AM EST 5:21 PM EST
Civil Twilight 7:25 AM EST 5:51 PM EST
Nautical Twilight 6:51 AM EST 6:25 PM EST
Astronomical Twilight 6:18 AM EST 6:58 PM EST
Moon 8:54 AM EST (12/6) 6:16 PM EST (12/6)
Length of Visible Light 10h 25m
Length of Day
9h 24m
New Moon, 1% of the Moon is Illuminated
Dec 6
New Moon
Dec 13
First Quarter
Dec 21
Full
Dec 27
Last Quarter
Jan 4
New

Hourly Weather History & Observations

Time (EST) Temp. Windchill Dew Point Humidity Pressure Visibility Wind Dir Wind Speed Gust Speed Precip Events Conditions
12:54 AM 9.0 °F -3.2 °F 3.0 °F 77% 30.31 in 10.0 mi West 8.1 mph - N/A   Clear
1:54 AM 9.0 °F -5.1 °F 3.0 °F 77% 30.29 in 10.0 mi WNW 10.4 mph - N/A   Clear
2:54 AM 8.1 °F -6.2 °F 3.0 °F 80% 30.30 in 10.0 mi West 10.4 mph - N/A   Clear
3:54 AM 6.1 °F -7.8 °F 1.0 °F 80% 30.29 in 10.0 mi West 9.2 mph - N/A   Clear
4:24 AM 5.0 °F -9.1 °F 1.4 °F 85% 30.25 in 8.0 mi West 9.2 mph - N/A   Scattered Clouds
4:31 AM 5.0 °F -9.1 °F 1.4 °F 85% 30.26 in 9.0 mi WNW 9.2 mph - N/A   Mostly Cloudy
4:52 AM 5.0 °F -9.1 °F -0.4 °F 78% 30.26 in 9.0 mi West 9.2 mph - N/A   Scattered Clouds
4:54 AM 5.0 °F -9.1 °F -0.0 °F 80% 30.29 in 9.0 mi WNW 9.2 mph - N/A   Partly Cloudy
5:24 AM 5.0 °F -9.1 °F 1.4 °F 85% 30.25 in 9.0 mi WNW 9.2 mph - N/A   Mostly Cloudy
5:54 AM 6.1 °F -9.5 °F 1.0 °F 80% 30.27 in 10.0 mi WNW 11.5 mph - N/A   Overcast
6:30 AM 6.8 °F -8.6 °F 1.4 °F 79% 30.24 in 10.0 mi WNW 11.5 mph - N/A   Overcast
6:54 AM 8.1 °F -7.7 °F 1.9 °F 76% 30.28 in 10.0 mi WNW 12.7 mph - N/A   Overcast
7:54 AM 6.1 °F -11.6 °F 1.0 °F 80% 30.27 in 10.0 mi West 15.0 mph - N/A   Partly Cloudy
8:54 AM 6.1 °F -8.7 °F 1.9 °F 83% 30.26 in 10.0 mi WNW 10.4 mph - N/A   Clear
9:54 AM 10.0 °F -5.2 °F 3.0 °F 73% 30.27 in 10.0 mi WNW 12.7 mph - N/A   Clear
10:54 AM 10.9 °F -3.4 °F 3.9 °F 73% 30.27 in 10.0 mi West 11.5 mph - N/A   Clear
11:54 AM 12.9 °F -2.2 °F 5.0 °F 71% 30.25 in 10.0 mi WNW 13.8 mph - N/A   Clear
12:54 PM 14.0 °F -2.0 °F 6.1 °F 71% 30.24 in 10.0 mi WNW 16.1 mph 24.2 mph N/A   Clear
1:54 PM 14.0 °F -3.4 °F 7.0 °F 74% 30.21 in 10.0 mi WNW 19.6 mph - N/A   Clear
2:54 PM 16.0 °F 1.7 °F 8.1 °F 71% 30.19 in 10.0 mi West 13.8 mph 21.9 mph N/A   Clear
3:54 PM 15.1 °F -1.1 °F 8.1 °F 74% 30.19 in 10.0 mi WNW 17.3 mph - N/A   Clear
4:54 PM 14.0 °F 1.2 °F 8.1 °F 77% 30.19 in 10.0 mi West 10.4 mph 19.6 mph N/A   Clear
5:54 PM 12.9 °F -0.9 °F 7.0 °F 77% 30.20 in 10.0 mi WNW 11.5 mph - N/A   Clear
6:54 PM 12.0 °F -1.3 °F 6.1 °F 77% 30.19 in 10.0 mi West 10.4 mph - N/A   Clear
7:18 PM 12.2 °F -0.2 °F 6.8 °F 79% 30.15 in 10.0 mi WNW 9.2 mph - N/A   Mostly Cloudy
7:54 PM 14.0 °F 2.0 °F 8.1 °F 77% 30.18 in 10.0 mi WNW 9.2 mph - N/A   Overcast
8:54 PM 15.1 °F 3.3 °F 9.0 °F 77% 30.17 in 5.0 mi WNW 9.2 mph - 0.00 in Snow Light Snow
9:01 PM 15.8 °F 5.1 °F 8.6 °F 73% 30.13 in 6.0 mi WNW 8.1 mph - 0.00 in Snow Light Snow
9:54 PM 16.0 °F 5.3 °F 10.0 °F 77% 30.15 in 8.0 mi WNW 8.1 mph - 0.00 in Snow Light Snow
10:54 PM 16.0 °F 3.6 °F 10.0 °F 77% 30.13 in 8.0 mi West 10.4 mph - 0.00 in Snow Light Snow
11:54 PM 17.1 °F 3.0 °F 10.9 °F 77% 30.12 in 10.0 mi WNW 13.8 mph - 0.00 in   Overcast